Tracking 32412 objects as of 6-Dec-2025
HD Live streaming from Space Station
objects crossing your sky now

OBJECT D

Track OBJECT D now!
10-day predictions


NORAD ID: 44882
Int'l Code: 2019-093D
Perigee: 557.9 km
Apogee: 577.8 km
Inclination: 97.8 °
Period: 95.9 minutes
Semi major axis: 6938 km
RCS: Unknown
Launch date: December 20, 2019
Source: (TBD)
Launch site: Taiyaun Space Center, China (TSC)

Note: This is a ROCKET BODY
Your satellite tracking list
Your tracking list is empty




NASA's NSSDC Master Catalog

Two Line Element Set (TLE):
1 44882U 19093D   25339.88587568  .00011738  00000-0  89774-3 0  9993
2 44882  97.7984  68.2530 0014323 321.5101  38.5101 15.01993794323567
Source of the keplerian elements: AFSPC